Location: Gälforsberget
(66.6500°N, 22.4167°E)
Time: 18:20:08
(UTC+00:00)

Cosmos 1190 Rocket - Pass Details

Date: 11 April 2026
Orbit: 752 x 776 km, 74.1° (Epoch: 16 May)

Event Time Altitude Azimuth Distance (km) Brightness Sun altitude
Rises 22:30:53 0° 320° (NW) 3,269 8.1 -14.8°
Reaches altitude 10° 22:33:19 10° 316° (NW) 2,340 7.2 -14.8°
Maximum altitude 22:38:28 53° 241° (WSW) 955 4.3 -14.7°
Enters shadow 22:41:38 23° 174° (S) 1,626 5.1 -14.7°
